Hourly Weather Roundup
Issued by NWS Central Illinois

Home | Current Version | Previous Version | Text Only | Print | Product List | Glossary On
Versions: 1 2 3 4 5 6 7 8 9 10 11 12 13 14 15 16 17 18 19 20 21 22 23 24 25 26 27 28 29 30 31 32 33 34 35 36 37 38 39 40 41 42 43 44 45 46 47 48 49 50
000
NZUS43 KILX 250910
HWRILX

Area Weather Roundup
National Weather Service Lincoln IL
400 AM CDT TUE JUL 25 2017

NOTE:  "FAIR" indicates few or no clouds below 12,000 feet, with
       no sigificant weather and/or obstructions to visibility.


CITY           SKY/WX    TMP DP  RH WIND       PRES   REMARKS
Bloomington    CLEAR     59  58  96 NE7       30.14S
Champaign      CLEAR     62  60  93 E7        30.13R
Danville       CLEAR     60  59  96 E3        30.12R
Decatur        CLEAR     62  60  93 E5        30.11S
Effingham      MOCLDY    67  66  96 NE6       30.11R
Flora          PTCLDY    71  67  88 NE6       30.08S
Galesburg      CLEAR     61  59  93 CALM      30.14R
Jacksonville   CLEAR     62  60  96 CALM      30.10R
Lacon          CLEAR     59  59 100 E3        30.13S
Lawrenceville  MOCLDY    68  66  93 NE9       30.09R
Litchfield     CLOUDY    67  64  87 E7        30.08F
$$


CITY           SKY/WX    TMP DP  RH WIND       PRES   REMARKS
Lincoln        CLEAR     62  62  97 NE5       30.11F
Macomb         FOG       60  59  99 E3        30.13S VSB 1
Mattoon        CLEAR     63  63 100 E5        30.10S
Mt Carmel AP   MOCLDY    68  66  91 NE6       30.08S
Olney-Noble AP PTCLDY    67  65  93 NE5       30.09R
Paris AP       CLEAR     61  61 100 NE3       30.13S
Peoria         CLEAR     63  61  93 E8        30.13R
Pontiac        CLEAR     59  59  99 E3        30.15S
Rantoul        CLEAR     63  62  96 E6        30.13F
Robinson       CLEAR     66  64  91 E5        30.11S
Springfield    PTCLDY    65  63  93 NE6       30.10F
Taylorville    PTCLDY    65  62  89 E6        30.10S
$$

...REGIONAL REPORTS...


CITY           SKY/WX    TMP DP  RH WIND       PRES   REMARKS
Chicago O`Hare PTCLDY    63  59  87 CALM      30.15R
Kankakee       CLEAR     61  59  94 CALM      30.16R
Moline         CLEAR     61  58  90 E6        30.13R
Mount Sterling CLEAR     64  62  94 E5        30.10S
Mount Vernon   MOCLDY    71  67  87 NE8       30.06S
Pittsfield     PTCLDY    67  65  96 NE3       30.10S
Quincy         CLEAR     67  64  90 E6        30.09S
Rockford       CLEAR     61  57  87 CALM      30.16S
$$


CITY           SKY/WX    TMP DP  RH WIND       PRES   REMARKS
Burlington     CLEAR     66  63  90 E5        30.11R
Cedar Rapids   NOT AVBL
Des Moines     CLOUDY    68  65  90 SE12      30.05F
Kirksville     CLEAR     65  64  97 E5        30.10S FOG
Ottumwa        CLEAR     64  63  96 E6        30.10S
St Louis       PTCLDY    74  66  76 E9        30.06S
$$


CITY           SKY/WX    TMP DP  RH WIND       PRES   REMARKS
Terre Haute    CLEAR     65  60  84 E3        30.12R
Evansville     PTCLDY    71  67  87 NE7       30.06S
Indianapolis   CLEAR     64  57  78 E6        30.13R
Lafayette      CLEAR     62  59  90 CALM      30.14R
Madison        CLEAR     54  52  93 CALM      30.15S
Milwaukee      PTCLDY    61  57  87 CALM      30.16R
$$






USA.gov is the U.S. government's official web portal to all federal, state and local government web resources and services.